Location: Navalespino
(40.5894°N, 4.2660°W)
Time: 02:50:15
(UTC+00:00)

Terra - Pass Details

Date: 18 April 2024
Orbit: 691 x 696 km, 98.0° (Epoch: 18 May)

Event Time Altitude Azimuth Distance (km) Brightness Sun altitude
Exits shadow 20:40:02 23° 77° (ENE) 1,473 3.1 -18.1°
Maximum altitude 20:40:34 23° 67° (ENE) 1,455 3.1 -18.2°
Drops below altitude 10° 20:44:16 10° 15° (NNE) 2,163 4.6 -18.8°
Sets 20:46:53 0° 1° (N) 3,084 5.6 -19.2°
